Miscellaneous Local Product
Issued by NWS North Platte, NE

Home | Current Version | Previous Version | Text Only | Print | Product List | Glossary On
Versions: 1 2 3 4 5 6 7 8 9 10 11 12 13 14 15 16 17 18 19 20 21 22 23 24 25 26 27 28 29 30 31 32 33 34 35 36 37 38 39 40 41 42 43 44 45 46 47 48 49 50
000
AXUS43 KLBF 161310
MISLBF


WESTERN AND NORTH CENTRAL NEBRASKA HOURLY WEATHER ROUNDUP
NATIONAL WEATHER SERVICE NORTH PLATTE NE
800 AM CDT WED APR 16 2014

***STATIONS NOT REPORTING VARIABLES SUCH AS SKY/WEATHER OR
PRESSURE ARE PROVIDED BY THE NEBRASKA DEPARTMENT OF
ROADS...RAWS...AND APRS NETWORKS...AND ARE NOT UNDER
NATIONAL WEATHER SERVICE QUALITY CONTROL***

...OBSERVATIONS IN AND NEAR THE EASTERN PANHANDLE OF NEBRASKA...

CITY           SKY/WX    TMP DP  RH WIND       PRES   REMARKS
PINE RIDGE     LGT RAIN  40  37  89 NW14G22   29.75R WCI  32
CHADRON        LGT RAIN  40  36  86 NW23G30   29.77R WCI  30
ALLIANCE       LGT RAIN  39  36  89 NW17G25   29.76R WCI  30
SIDNEY         CLOUDY    40  32  73 NW23      29.79R WCI  30
WHITECLAY        N/A     37  35  92 NW9         N/A  WCI  30
CRESCENT LAKE    N/A     38  37  97 NW16G30     N/A  WCI  29
LISCO            N/A     44  30  59 W26         N/A
BIG SPRINGS      N/A     43  35  73 NW14        N/A
LEWELLEN         N/A     43  34  70 NW23        N/A
$$

...OBSERVATIONS IN SOUTHWEST NEBRASKA AND FAR NORTHEAST COLORADO...

CITY           SKY/WX    TMP DP  RH WIND       PRES   REMARKS
WRAY           FAIR      42  34  73 NW21G32   29.76R
HOLYOKE        FAIR      43  34  70 NW21G30   29.76R
IMPERIAL       PTCLDY    44  34  67 NW31G45   29.70R
OGALLALA       PTCLDY    43  34  68 NW28G35   29.73R
NORTH PLATTE   MOCLDY    47  36  65 NW25      29.66R
MCCOOK         CLOUDY    47  32  56 W17       29.66R
LEXINGTON      PTSUNNY   40  28  62 S6        29.61R
PAXTON           N/A     49  37  62 W16         N/A
SUTHERLAND       N/A     41  34  77 NW15        N/A
MEDICINE CREEK   N/A     37  27  67 W3          N/A
GOTHENBURG       N/A     40  27  60 CALM        N/A
CALLAWAY         N/A     41  28  60 S3          N/A
$$

...OBSERVATIONS IN NORTH CENTRAL NEBRASKA...

CITY           SKY/WX    TMP DP  RH WIND       PRES   REMARKS
VALENTINE      MIX PCPN  35  32  88 NW21G31   29.65R FOG     WCI  24
THEDFORD       PTSUNNY   46  38  74 NW17G23   29.65R
AINSWORTH      MOSUNNY   39  31  70 NW17G23   29.62R WCI  30
O`NEILL        CLOUDY    48  24  39 S12       29.56R
ORD            CLOUDY    45  25  45 S10       29.58R
BROKEN BOW     CLOUDY    42  26  53 W6        29.60R
BROWNLEE         N/A     43  35  73 NW26        N/A
SPRINGVIEW       N/A     38  29  70 NW12G21     N/A  WCI  30
DUNNING          N/A     44  32  63 W17         N/A
BREWSTER         N/A     46  32  59 NW14        N/A
ROSE             N/A     44  32  64 SW10        N/A
NEWPORT          N/A     42  31  67 W20         N/A
COMSTOCK         N/A     45  26  47 S10         N/A
EWING            N/A     47  26  43 S12         N/A
$$

...SOME WEATHER OBSERVATIONS FROM AROUND THE REGION...

CITY           SKY/WX    TMP DP  RH WIND       PRES   REMARKS
DENVER         PTCLDY    38  26  62 NE5       29.83R WCI  34
LARAMIE        PTCLDY    25  21  85 W18       29.88  WCI  11
CHEYENNE       CLEAR     33  25  72 W10       29.84R WCI  25
SCOTTSBLUFF    MOCLDY    41  31  67 NW22G30   29.82R
RAPID CITY     CLOUDY    41  35  79 NW18      29.74R
PIERRE         FRZ RAIN  31  28  89 NE14      29.72R WCI  21
WINNER         CLOUDY    37  30  75 N22G29    29.65R WCI  26
SIOUX FALLS    CLOUDY    46  27  47 S12       29.61S
OMAHA          CLOUDY    47  28  47 S25G33    29.75S
GRAND ISLAND   CLOUDY    46  22  38 S17       29.64R
KANSAS CITY    PTSUNNY   47  26  44 S21G29    29.94R
WICHITA        MOSUNNY   47  27  45 S23G35    29.85S
HAYS           MOSUNNY   46  18  31 SW10      29.71R
LIBERAL        PTCLDY    45  16  31 SW13      29.74R
GOODLAND       PTCLDY    44  32  62 NW25      29.75R
$$



USA.gov is the U.S. government's official web portal to all federal, state and local government web resources and services.